Tracking 19817 objects as of 20-Aug-2019
HD Live streaming from Space Station
objects crossing your sky now

COSMOS 2251 DEB

Track COSMOS 2251 DEB now!
10-day predictions


NORAD ID: 34458
Int'l Code: 1993-036TB
Perigee: 720.5 km
Apogee: 745.7 km
Inclination: 74.0 °
Period: 99.3 minutes
Semi major axis: 7104 km
RCS: 0.0199 m2 (small)
Launch date: June 16, 1993
Source: Commonwealth of Independent States (former USSR) (CIS)
Launch site: PLESETSK MISSILE AND SPACE COMPLEX (PKMTR)

Note: This is SATELLITE DEBRIS
aabbcc
Your satellite tracking list
Your tracking list is empty




NASA's NSSDC Master Catalog

Two Line Element Set (TLE):
1 34458U 93036TB  19232.15348439  .00000676  00000-0  18182-3 0  9991
2 34458  74.0280 107.1066 0017734  16.7767 145.6200 14.49905886551984
Source of the keplerian elements: AFSPC